Lufkin, TX

4:52 AM CDT on October 24, 2017 (GMT -0500)
Angelina County

Weather History for KLFK - October, 2013

Change the Weather History Date:

Thursday, October 24, 2013

  Actual Average Record
Temperature  
Mean Temperature 66 °F 65 °F  
Max Temperature 83 °F 77 °F 91 °F (1931)
Min Temperature 48 °F 53 °F 31 °F (1908)
Degree Days  
Heating Degree Days 0 3  
Month to date heating degree days 20 38  
Since 1 July heating degree days 20 42  
Cooling Degree Days 1 3  
Month to date cooling degree days 157 127  
Year to date cooling degree days 2790 2524  
Growing Degree Days 15 (Base 50)    
Moisture  
Dew Point 51 °F    
Average Humidity 66    
Maximum Humidity 100    
Minimum Humidity 31    
Precipitation  
Precipitation 0.00 in 0.18 in 1.98 in (1954)
Month to date precipitation 1.93 3.62  
Year to date precipitation 32.18 38.29  
Snow  
Snow 0.00 in - - ()
Month to date snowfall 0.0  
Since 1 July snowfall 0.0  
Since 1 September snowfall 0.0  
Snow Depth 0.00 in    
Sea Level Pressure  
Sea Level Pressure 30.17 in    
Wind  
Wind Speed 2 mph (West)    
Max Wind Speed 10 mph    
Max Gust Speed 14 mph    
Visibility 10 miles    
Events      
T = Trace of Precipitation, MM = Missing Value Source: NWS Daily Summary

Daily Weather History Graph

Daily Weather History Graph

Search for Another Location

Airport or City:

Trip Planner

Search our weather history database for the weather conditions in past years. The results will help you decide how hot, cold, wet, or windy it might be!

Date:

Astronomy

Oct. 24, 2013 Rise Set
Actual Time 7:28 AM CDT 6:37 PM CDT
Civil Twilight 7:03 AM CDT 7:01 PM CDT
Nautical Twilight 6:35 AM CDT 7:30 PM CDT
Astronomical Twilight 6:07 AM CDT 7:58 PM CDT
Moon 11:10 PM CDT 12:21 PM CDT
Length of Visible Light 11h 58m
Length of Day
11h 08m
Waning Gibbous, 71% of the Moon is Illuminated
Oct 24
Waning Gibbous
Oct 26
Last Quarter
Nov 3
New
Nov 9
First Quarter
Nov 17
Full

Hourly Weather History & Observations

Time (CDT) Temp. Dew Point Humidity Pressure Visibility Wind Dir Wind Speed Gust Speed Precip Events Conditions
12:53 AM 55.9 °F 52.0 °F 87% 30.11 in 10.0 mi Calm Calm - N/A   Clear
1:53 AM 54.0 °F 51.1 °F 90% 30.11 in 10.0 mi Calm Calm - N/A   Clear
2:53 AM 53.1 °F 51.1 °F 93% 30.11 in 10.0 mi Calm Calm - N/A   Clear
3:53 AM 52.0 °F 48.9 °F 89% 30.12 in 10.0 mi Calm Calm - N/A   Clear
4:53 AM 51.1 °F 48.9 °F 92% 30.12 in 10.0 mi Calm Calm - N/A   Clear
5:53 AM 48.9 °F 48.0 °F 97% 30.14 in 10.0 mi Calm Calm - N/A   Clear
6:53 AM 50.0 °F 48.0 °F 93% 30.15 in 10.0 mi Calm Calm - N/A   Clear
7:53 AM 48.9 °F 48.0 °F 97% 30.17 in 10.0 mi Calm Calm - N/A   Clear
8:53 AM 57.9 °F 53.1 °F 84% 30.20 in 10.0 mi Calm Calm - N/A   Clear
9:53 AM 66.0 °F 53.1 °F 63% 30.22 in 10.0 mi WSW 3.5 mph - N/A   Clear
10:53 AM 72.0 °F 53.1 °F 51% 30.22 in 10.0 mi Variable 5.8 mph - N/A   Clear
11:53 AM 75.9 °F 53.1 °F 45% 30.22 in 10.0 mi SW 5.8 mph - N/A   Clear
12:53 PM 80.1 °F 51.1 °F 36% 30.20 in 10.0 mi West 4.6 mph - N/A   Clear
1:53 PM 82.0 °F 48.9 °F 31% 30.18 in 10.0 mi WSW 9.2 mph - N/A   Clear
2:53 PM 82.0 °F 48.0 °F 30% 30.16 in 10.0 mi Variable 4.6 mph - N/A   Clear
3:53 PM 82.0 °F 48.0 °F 30% 30.16 in 10.0 mi WNW 5.8 mph - N/A   Clear
4:53 PM 82.0 °F 48.0 °F 30% 30.16 in 10.0 mi North 3.5 mph - N/A   Clear
5:53 PM 79.0 °F 48.0 °F 34% 30.16 in 10.0 mi Calm Calm - N/A   Clear
6:53 PM 66.9 °F 55.0 °F 66% 30.17 in 10.0 mi Calm Calm - N/A   Clear
7:53 PM 63.0 °F 54.0 °F 72% 30.18 in 10.0 mi Calm Calm - N/A   Clear
8:53 PM 61.0 °F 54.0 °F 78% 30.19 in 10.0 mi Calm Calm - N/A   Clear
9:53 PM 57.9 °F 54.0 °F 87% 30.21 in 10.0 mi Calm Calm - N/A   Clear
10:53 PM 55.9 °F 52.0 °F 87% 30.23 in 10.0 mi Calm Calm - N/A   Clear
11:53 PM 55.9 °F 52.0 °F 87% 30.24 in 10.0 mi Calm Calm - N/A   Clear